TimeMST,TemperatureF,Dew PointF,Humidity,Sea Level PressureIn,VisibilityMPH,Wind Direction,Wind SpeedMPH,Gust SpeedMPH,PrecipitationIn,Events,Conditions,WindDirDegrees,DateUTC
12:53 AM,53.1,19.9,27,30.05,10.0,NW,6.9,-,N/A,,Clear,320,2012-11-07 07:53:00
1:53 AM,48.0,19.9,33,30.06,10.0,NW,6.9,-,N/A,,Clear,310,2012-11-07 08:53:00
2:53 AM,51.1,19.9,29,30.04,10.0,NNW,4.6,-,N/A,,Clear,340,2012-11-07 09:53:00
3:53 AM,48.0,19.9,33,30.04,10.0,NW,6.9,-,N/A,,Clear,310,2012-11-07 10:53:00
4:53 AM,48.0,19.9,33,30.05,10.0,NW,5.8,-,N/A,,Clear,320,2012-11-07 11:53:00
5:53 AM,43.0,18.0,37,30.09,10.0,NNW,3.5,-,N/A,,Clear,340,2012-11-07 12:53:00
6:53 AM,43.0,19.0,38,30.11,9.0,Calm,Calm,-,N/A,,Clear,0,2012-11-07 13:53:00
7:53 AM,54.0,19.9,26,30.12,10.0,Calm,Calm,-,N/A,,Clear,0,2012-11-07 14:53:00
8:53 AM,57.0,21.0,25,30.11,10.0,Calm,Calm,-,N/A,,Clear,0,2012-11-07 15:53:00
9:53 AM,63.0,21.9,21,30.09,10.0,Variable,3.5,-,N/A,,Clear,0,2012-11-07 16:53:00
10:53 AM,66.0,23.0,20,30.06,10.0,ESE,5.8,-,N/A,,Clear,110,2012-11-07 17:53:00
11:53 AM,70.0,23.0,17,30.01,10.0,SE,4.6,-,N/A,,Clear,140,2012-11-07 18:53:00
12:53 PM,75.0,21.9,14,29.94,10.0,SSE,6.9,-,N/A,,Clear,160,2012-11-07 19:53:00
1:53 PM,77.0,21.0,12,29.92,10.0,South,13.8,-,N/A,,Clear,180,2012-11-07 20:53:00
2:53 PM,78.1,18.0,10,29.89,10.0,South,11.5,-,N/A,,Clear,180,2012-11-07 21:53:00
3:53 PM,78.1,19.9,11,29.88,10.0,South,15.0,-,N/A,,Clear,180,2012-11-07 22:53:00
4:53 PM,75.0,21.0,13,29.88,10.0,SE,5.8,-,N/A,,Clear,140,2012-11-07 23:53:00
5:53 PM,70.0,21.0,16,29.91,10.0,SSE,6.9,-,N/A,,Clear,160,2012-11-08 00:53:00
6:53 PM,66.9,18.0,15,29.94,10.0,SW,8.1,-,N/A,,Clear,220,2012-11-08 01:53:00
7:53 PM,64.0,18.0,17,29.93,10.0,Calm,Calm,-,N/A,,Clear,0,2012-11-08 02:53:00
8:53 PM,61.0,18.0,19,29.94,10.0,Calm,Calm,-,N/A,,Clear,0,2012-11-08 03:53:00
9:53 PM,61.0,19.0,20,29.93,10.0,WSW,4.6,-,N/A,,Clear,240,2012-11-08 04:53:00
10:53 PM,57.0,19.9,24,29.93,10.0,Calm,Calm,-,N/A,,Clear,0,2012-11-08 05:53:00
11:53 PM,55.0,19.0,24,29.91,10.0,WNW,6.9,-,N/A,,Clear,290,2012-11-08 06:53:00